Regional Weather Roundup
Issued by NWS Upton, NY

Current Version | Previous Version | Text Only | Print | Product List | Glossary On
Versions: 1 2 3 4 5 6 7 8 9 10 11 12 13 14 15 16 17 18 19 20 21 22 23 24 25 26 27 28
000
ASUS41 KOKX 190908
RWROKX

REGIONAL WEATHER ROUNDUP
NATIONAL WEATHER SERVICE NEW YORK NY
400 AM EST SUN FEB 19 2017

NOTE: "FAIR" INDICATES FEW OR NO CLOUDS BELOW 12,000 FEET WITH NO
SIGNIFICANT WEATHER AND/OR OBSTRUCTIONS TO VISIBILITY.

NYZ071-072-176-178-NJZ106-104-191000-
NEW YORK CITY METRO AREA

CITY           SKY/WX    TMP DP  RH WIND       PRES   REMARKS
Central Park   CLOUDY    56  32  40 VRB3      29.73R
Wall St Helipt NOT AVBL
LaGuardia APRT MOCLDY    57  32  38 SW9       29.71R
Kennedy INTL   MOCLDY    52  35  52 W13       29.72R
Breezy Point     N/A     46 N/A N/A W8          N/A
Newark/Liberty MOCLDY    49  33  54 SW8       29.72R
Teterboro      PTCLDY    48  34  58 SW7       29.70R
$$

NYZ177-179-078>081-191000-
LONG ISLAND NEW YORK

CITY           SKY/WX    TMP DP  RH WIND       PRES   REMARKS
Jones Beach      N/A     48 N/A N/A W10         N/A
Matinecock PT  NOT AVBL
Farmingdale    PTCLDY    47  34  60 W7        29.71R
MacArthur/ISP  MOCLDY    42  35  76 SW8       29.70R
Shirley        MOCLDY    47  35  63 W8        29.71R
Westhampton    MOCLDY    41  33  73 W9        29.70R
Southampton    NOT AVBL
Bridgehampton  NOT AVBL
East Hampton     N/A     39  32  78 W3        29.68R
Montauk          N/A     47  35  63 W5        29.69R
$$

NYZ052-065-067-191000-
HUDSON VALLEY

CITY           SKY/WX    TMP DP  RH WIND       PRES   REMARKS
White Plains   CLOUDY    52  31  44 W10       29.69R
Newburgh       NOT AVBL
Montgomery     CLOUDY    32  28  85 S3        29.69R
Poughkeepsie   CLEAR     35  29  78 CALM      29.67S
Albany         PTCLDY    46  35  65 W6        29.68R
$$

NJZ001-105-106-008-010-013-015-019>022-104-191000-
NEW JERSEY

CITY           SKY/WX    TMP DP  RH WIND       PRES   REMARKS
Newark/Liberty MOCLDY    49  33  54 SW8       29.72R
Teterboro      PTCLDY    48  34  58 SW7       29.70R
Caldwell       CLOUDY    47  32  56 W3        29.72R
Somerville     PTCLDY    38  32  79 CALM      29.72R
Linden         NOT AVBL
Sussex         CLOUDY    32  29  88 CALM      29.72R
Andover          N/A     34  30  85 CALM      29.73R
Trenton        CLOUDY    57  32  38 W5        29.73S
Millville      CLOUDY    48  36  63 W3        29.76F
Atlantic City  CLOUDY    57  32  38 W5        29.76R
Wrightstown    CLOUDY    58  34  39 W7        29.72R
Toms River     PTCLDY    58  34  40 W10       29.75R
Belmar         PTCLDY    58  34  40 W10       29.73F
$$

PAZ047>061-062-071-191000-
EASTERN PENNSYLVANIA

CITY           SKY/WX    TMP DP  RH WIND       PRES   REMARKS
Philadelphia   CLOUDY    50  35  56 W8        29.77R
Allentown      CLOUDY    49  33  54 SW3       29.74R
Scranton       CLOUDY    49  34  56 SW7       29.74R
$$

CTZ002-004>006-009-010-012-RIZ004-006-007-MAZ004-011-015-191000-
SOUTHERN NEW ENGLAND
 IN CT

CITY           SKY/WX    TMP DP  RH WIND       PRES   REMARKS
Bradley INTL   PTCLDY    34  30  85 SW5       29.65R WCI  30
Hartford       CLOUDY    33  29  85 CALM      29.66R
Danbury        CLOUDY    36  30  79 SW6       29.69R WCI  31
Wtrbury/Oxford CLOUDY    52  30  43 W6        29.68R
Bridgeport     PTCLDY    44  32  62 W3        29.68R
Meriden        CLOUDY    30  27  88 CALM      29.67R FOG
New Haven      CLOUDY    44  33  65 CALM      29.67R
Chester          N/A     50  32  50 W5        29.67R
Groton         CLOUDY    36  32  85 W5        29.66R WCI  32
Wilimantic     PTCLDY    32  28  85 CALM      29.66R

 IN RI

CITY           SKY/WX    TMP DP  RH WIND       PRES   REMARKS
Providence     CLOUDY    39  31  72 SW5       29.65R
Block Island   CLOUDY    43  36  76 SW13      29.68R
Westerly       CLOUDY    41  33  73 SW3       29.67R
 IN MA

CITY           SKY/WX    TMP DP  RH WIND       PRES   REMARKS
Boston         PTCLDY    40  32  73 S10       29.60R WCI  33
Worcester      CLEAR     44  31  60 W9        29.60R
Westfield      CLEAR     28  26  92 CALM      29.64R
Provincetown   CLEAR     41  36  82 SW13      29.61R
Nantucket      CLOUDY    45  38  76 W17       29.63R
$$

ANZ330-335-338-340-345-350-353-355-191000-
COASTAL MARINE OBSERVATIONS


STATION/POSITION TIME  SKY/WX   TEMP    WIND        PRES    VSBY  WAVE
                                AIR SEA DIR/SP/G                  HT/PER
                 (UTC)          (F)     (DEG/KT/KT) (MB)    (MI)  (FT/S)
NY HARB ENTRANCE 0850            47 42  230/ 12/ 14 1006.0          3/ 5
20 S FIRE ISLAND 0850            47 40  250/ 12/ 14 1006.1          3/ 6
GREAT SOUTH BAY  NOT AVBL
23 SSW MONTAUK P 0750            48 44              1004.5          4/ 6
15 E BARNEGAT LI 0830               42                N/A           2/ 5
HUDSON CANYON    0850               51              1005.7          4/ 6
KINGS POINT      0842            52 37              1005.8
EXECUTION ROCKS  NOT AVBL
CENTRAL LI SOUND 0830            43     300/ 10/ 10   N/A           1/ 3
EASTERN LI SOUND NOT AVBL
ROBBINS REEF     0842            54     260/ 15/ 16 1006.3
$$


>>>>>>>>>>>>>>>>>>>>>>>>>>>> KEY <<<<<<<<<<<<<<<<<<<<<<<<<<<
>                                                          <
>     SKY/WX - Sky Condition/Present Weather               <
>     TMP    - Temperature in Fahrenheit                   <
>     DP     - Dew Point in Fahrenheit                     <
>     RH     - Relative Humidity in Percent                <
>     WIND   - Direction (from) and Speed in MPH           <
>     PRES   - Mean Sea Level Pressure (inches of Hg)      <
>     WCI    - Wind Chill Index                            <
>     VSB    - VISIBILITY IN MILES                         <
>     HX     - HEAT INDEX                                  <
>     TC     - TEMPERATURE IN CELSIUS                      <
>     VRB    - VARIABLE WIND DIRECTION                     <
>                                                          <
>>>>>>>>>>>>>>>>>>>>>>>>>>>> KEY <<<<<<<<<<<<<<<<<<<<<<<<<<<




USA.gov is the U.S. government's official web portal to all federal, state and local government web resources and services.